This demonstration page uses our WeatherBlox Daily Observations layout. Learn more.

Left ArrowRight Arrow

39.95238, -75.16362

Hourly Observations for August 11, 2016

Temp ( °F °C ) Dew Point ( °F °C ) Humidity (%) Winds ( mph kmh ) Pressure ( in mb ) Visibility ( mi km ) Precip ( " mm )
12:54 am 00:54 Cloudy 83 28.3 74 23.3 74 74 SW 13 20 30.12 1020 10 16 0.00 0.00
1:54 am 01:54 Cloudy 81 27.2 75 23.9 82 82 SSW 12 19 30.10 1019 10 16 0.00 0.00
2:54 am 02:54 Cloudy 81 27.2 76 24.4 85 85 SSW 10 17 30.09 1019 10 16 0.00 0.00
3:54 am 03:54 Cloudy 81 27.2 76 24.4 85 85 SW 9 15 30.10 1019 10 16 0.00 0.00
4:54 am 04:54 Cloudy 81 27.2 76 24.4 85 85 SW 8 13 30.11 1020 10 16 0.00 0.00
5:54 am 05:54 Mostly Cloudy 80 26.7 75 23.9 85 85 SSW 7 11 30.12 1020 10 16 0.00 0.00
6:54 am 06:54 Mostly Cloudy 80 26.7 75 23.9 85 85 S 8 13 30.12 1020 10 16 0.00 0.00
7:54 am 07:54 Mostly Cloudy 82 27.8 74 23.3 77 77 SW 13 20 30.12 1020 10 16 0.00 0.00
8:20 am 08:20 Mostly Cloudy with Thunderstorms 82 27.8 74 23.3 77 77 SW 12 19 30.12 1020 10 16 0.00 0.00
8:54 am 08:54 Mostly Cloudy with Light Rain 83 28.3 74 23.3 74 74 SW 12 19 30.12 1020 10 16 0.00 0.03
9:20 am 09:20 Mostly Cloudy with Thunderstorms 81 27.2 75 23.9 82 82 SW 8 13 30.12 1020 10 16 0.09 2.29
9:43 am 09:43 Mostly Cloudy with Thunderstorms 80 26.7 75 23.9 85 85 S 3 6 30.12 1020 6 10 0.10 2.54
9:51 am 09:51 Mostly Cloudy with Strong Thunderstorms 79 26 75 24 89 89 S 7 11 30.12 1020 7 11 0.27 6.86
9:54 am 09:54 Mostly Cloudy with Strong Thunderstorms 79 26.1 76 24.4 90 90 S 8 13 30.12 1020 7 11 0.31 7.87
10:01 am 10:01 Mostly Cloudy with Thunderstorms 80 26.7 76 24.4 87 87 SW 6 9 30.12 1020 10 16 0.00 0.00
10:24 am 10:24 Mostly Cloudy 82 27.8 76 24.4 82 82 SW 8 13 30.12 1020 10 16 0.00 0.00
10:54 am 10:54 Mostly Cloudy 84 28.9 76 24.4 77 77 SSW 9 15 30.12 1020 10 16 0.00 0.00
11:54 am 11:54 Partly Cloudy 87 30.6 74 23.3 65 65 SW 13 20 30.10 1019 10 16 0.00 0.00
12:54 pm 12:54 Partly Cloudy 90 32.2 74 23.3 59 59 WSW 13 20 30.09 1019 10 16 0.00 0.00
1:54 pm 13:54 Partly Cloudy 93 33.9 73 22.8 52 52 SW 13 20 30.06 1018 10 16 0.00 0.00
2:54 pm 14:54 Partly Cloudy 93 33.9 73 22.8 52 52 SW 13 20 30.03 1017 10 16 0.00 0.00
3:54 pm 15:54 Partly Cloudy 94 34.4 73 22.8 51 51 SW 13 20 30.02 1017 10 16 0.00 0.00
4:54 pm 16:54 Mostly Cloudy 93 33.9 72 22.2 50 50 SW 15 24 30.00 1016 10 16 0.00 0.00
5:54 pm 17:54 Mostly Cloudy 92 33.3 73 22.8 54 54 SW 14 22 30.00 1016 10 16 0.00 0.00
6:54 pm 18:54 Mostly Cloudy 91 32.8 73 22.8 56 56 SW 14 22 29.99 1016 10 16 0.00 0.00
7:54 pm 19:54 Mostly Cloudy 90 32.2 72 22.2 56 56 SSW 12 19 30.01 1016 10 16 0.00 0.00
8:54 pm 20:54 Mostly Cloudy 88 31.1 72 22.2 59 59 SSW 12 19 30.01 1016 10 16 0.00 0.00
9:54 pm 21:54 Mostly Cloudy 87 30.6 74 23.3 65 65 SSW 10 17 30.02 1017 10 16 0.00 0.00
10:54 pm 22:54 Mostly Cloudy 85 29.4 74 23.3 70 70 SSW 12 19 30.01 1016 10 16 0.00 0.00
11:54 pm 23:54 Cloudy 85 29.4 75 23.9 72 72 SSW 9 15 30.01 1016 10 16 0.00 0.00

Powered by AerisWeather